Location: Bailen
(14.1842°N, 120.7958°E)
Time: 18:06:24
(UTC+00:00)

Meteor 1-11 Rocket - Pass Details

Date: 12 January 2026
Orbit: 830 x 915 km, 81.2° (Epoch: 17 February)

Event Time Altitude Azimuth Distance (km) Brightness Sun altitude
Rises 20:22:55 0° 191° (S) 3,538 7.0 -28.7°
Reaches altitude 10° 20:25:24 10° 193° (SSW) 2,596 6.3 -28.1°
Enters shadow 20:30:27 60° 229° (SW) 1,033 3.9 -26.9°
